sat.trackr.live / text

‹ back to catalog

STARLINK-35885

NORAD 66890 · 2025-283N

PAYLOAD ACTIVE UNKNOWN

§ Identity

Operator
Country
US
Launch date
2025-12-04
Launch site
AFWTR
Launch vehicle
Mass (kg)
RCS (m²)

Purposes: comms

External: N2YO · Heavens-Above · Gunter

§ Orbital elements

Epoch: 2026-05-25T04:00:03.998880Z

Period
93.91 min
Inclination
53.1601°
Eccentricity
0.0001105
Mean motion
15.33332824 rev/d
Perigee alt
465.1 km
Apogee alt
466.6 km
Semi-major
6,844.0 km
B*
2.6101e-2
RAAN
28.8754°
Arg perigee
191.1394°
Mean anomaly
183.4252°
Rev number
585

§ Raw data

STARLINK-358851 66890U 25283N   26145.16671295  .00919332  00000+0  26101-1 0  99912 66890  53.1601  28.8754 0001105 191.1394 183.4252 15.33332824  5853

JSON: /api/v1/satellites/66890 · /tle

For live sub-satellite position, see the globe view (requires WebGL).

§ Visibility from observer

Set your observer location to see the next 7 days of passes ≥ 10°. The values pass through the URL so the page stays shareable.

No JS? Fill the form by hand. The geolocation button needs JavaScript.